Home > Weather > Winder > Past weeks

Flag for USA Past Weather in Winder, Georgia, USA — Yesterday and Last 2 Weeks

Now
75 °F

Rain. Overcast.


Feels Like: 75 °F
Forecast: 73 / 84 °F
Wind: No wind

Location: Winder-Barrow Airport

Current Time: Aug 24, 2016 at 6:27:48 AM

Latest Report: Aug 24, 2016 at 5:55 AM


Visibility: 10 mi

Pressure: 30.28 "Hg

Humidity: 89%

Dew Point: 72 °F

Location of WinderLocation

Past Weather in Winder — Graph

°F

Winder Temperature Yesterday

Maximum temperature yesterday: 90 °F (at 3:15 PM)
Minimum temperature yesterday: 68 °F (at 2:55 AM)
Average temperature yesterday: 78 °F

High & Low Weather Summary for the Past Weeks

 TemperatureHumidityPressure
High95 °F (Aug 17, 3:15 PM)94% (Aug 10, 9:15 AM)30.32 "Hg (Aug 10, 9:15 AM)
Low68 °F (Aug 23, 2:55 AM)31% (Aug 22, 3:55 PM)29.92 "Hg (Aug 20, 5:15 PM)
Average80 °F74%30.14 "Hg
* Reported Aug 9 5:15 AM — Aug 24 5:15 AM, Winder, Weather by CustomWeather, © 2016

Note: Actual official high and low records may vary slightly from our data, if they occured in-between our weather recording intervals... More about our weather records

Advertising

Winder Weather History for the Previous 24 Hours

Scroll right to see more
 ConditionsComfort  
Time TempWeatherWind HumidityBarometerVisibility
5:15 AM
Wed, Aug 24
75 °FMostly cloudy.No wind89%30.27 "Hg10 mi
4:55 AM75 °FOvercast.No wind83%30.27 "Hg10 mi
4:35 AM73 °FOvercast.No wind94%30.27 "Hg10 mi
4:15 AM73 °FOvercast.No wind94%30.26 "Hg10 mi
3:55 AM75 °FPassing clouds.No wind83%30.26 "Hg10 mi
3:35 AM73 °FClear.No wind89%30.26 "Hg10 mi
3:15 AM73 °FPassing clouds.No wind89%30.26 "Hg10 mi
2:55 AM75 °FPassing clouds.No wind83%30.27 "Hg10 mi
2:35 AM75 °FPartly cloudy.No wind83%30.26 "Hg10 mi
2:15 AM75 °FPartly cloudy.No wind83%30.26 "Hg10 mi
1:55 AM75 °FPassing clouds.No wind83%30.26 "Hg10 mi
1:15 AM77 °FPassing clouds.No wind79%30.27 "Hg10 mi
12:55 AM77 °FPassing clouds.No wind79%30.28 "Hg10 mi
12:35 AM75 °FPassing clouds.No wind89%30.27 "Hg10 mi
12:15 AM77 °FPassing clouds.No wind83%30.28 "Hg10 mi
11:55 PM
Tue, Aug 23
77 °FPassing clouds.No wind83%30.28 "Hg10 mi
11:35 PM79 °FPassing clouds.No wind79%30.28 "Hg10 mi
11:15 PM79 °FOvercast.No wind79%30.28 "Hg10 mi
10:55 PM79 °FOvercast.No wind74%30.28 "Hg10 mi
10:35 PM81 °FOvercast.No wind70%30.28 "Hg10 mi
10:15 PM79 °FOvercast.No wind79%30.28 "Hg10 mi
9:55 PM79 °FPassing clouds.No wind79%30.28 "Hg10 mi
9:35 PM81 °FPassing clouds.No wind70%30.27 "Hg10 mi
9:15 PM81 °FClear.No wind74%30.26 "Hg10 mi
8:55 PM82 °FSunny.No wind70%30.26 "Hg10 mi
8:35 PM82 °FScattered clouds.3 mph70%30.25 "Hg10 mi
8:15 PM82 °FPartly sunny.No wind70%30.25 "Hg10 mi
7:55 PM84 °FPartly sunny.No wind66%30.25 "Hg10 mi
7:35 PM84 °FPartly sunny.No wind66%30.25 "Hg10 mi
7:15 PM86 °FScattered clouds.No wind62%30.25 "Hg10 mi
6:55 PM86 °FScattered clouds.6 mph62%30.25 "Hg10 mi
6:35 PM88 °FScattered clouds.5 mph55%30.25 "Hg10 mi
6:15 PM88 °FPartly sunny.6 mph55%30.24 "Hg10 mi
5:55 PM88 °FScattered clouds.5 mph55%30.24 "Hg10 mi
5:35 PM88 °FPartly sunny.6 mph55%30.24 "Hg10 mi
5:15 PM90 °FSunny.3 mph46%30.24 "Hg10 mi
4:55 PM90 °FSunny.7 mph43%30.24 "Hg10 mi
4:35 PM90 °FSunny.No wind43%30.24 "Hg10 mi
4:15 PM90 °FSunny.No wind43%30.24 "Hg10 mi
3:55 PM90 °FSunny.5 mph46%30.25 "Hg10 mi
3:35 PM88 °FSunny.No wind46%30.25 "Hg10 mi
3:15 PM90 °FScattered clouds.No wind49%30.25 "Hg10 mi
2:55 PM88 °FScattered clouds.3 mph52%30.27 "Hg10 mi
2:35 PM88 °FSunny.No wind52%30.27 "Hg10 mi
2:15 PM88 °FSunny.5 mph55%30.28 "Hg10 mi
1:55 PM88 °FScattered clouds.No wind55%30.29 "Hg10 mi
1:35 PM86 °FScattered clouds.No wind59%30.30 "Hg10 mi
1:15 PM86 °FScattered clouds.No wind62%30.31 "Hg10 mi
12:55 PM86 °FScattered clouds.No wind62%30.32 "Hg10 mi
12:35 PM86 °FPartly sunny.No wind62%30.32 "Hg10 mi
12:15 PM84 °FPartly sunny.No wind66%30.32 "Hg10 mi
11:55 AM82 °FPartly sunny.No wind70%30.32 "Hg10 mi
11:35 AM79 °FOvercast.No wind79%30.32 "Hg10 mi
11:15 AM79 °FOvercast.3 mph79%30.32 "Hg10 mi
10:55 AM79 °FLow clouds.No wind79%30.32 "Hg10 mi
10:35 AM79 °FLow clouds.3 mph74%30.32 "Hg10 mi
10:15 AM77 °FLow clouds.No wind79%30.31 "Hg10 mi
9:55 AM77 °FPartly sunny.No wind79%30.31 "Hg10 mi
9:35 AM77 °FScattered clouds.No wind74%30.31 "Hg10 mi
9:15 AM75 °FSunny.3 mph78%30.30 "Hg10 mi
8:55 AM73 °FSunny.No wind83%30.29 "Hg10 mi
8:35 AM72 °FSunny.No wind88%30.29 "Hg10 mi
8:15 AM72 °FSunny.3 mph83%30.28 "Hg10 mi
7:55 AM70 °FClear.No wind83%30.28 "Hg10 mi
7:35 AM68 °FClear.No wind88%30.27 "Hg10 mi
7:15 AM68 °FClear.No wind88%30.27 "Hg10 mi
6:55 AM68 °FClear.No wind88%30.26 "Hg10 mi
6:35 AM68 °FPassing clouds.No wind88%30.26 "Hg10 mi
6:15 AM68 °FPassing clouds.No wind88%30.25 "Hg10 mi
Weather by CustomWeather, © 2016

See weather overviewHow to use our weather pages